Terminal Aerodrome Forecast
Issued by NWS Dodge City, KS

Home | Current Version | Previous Version | Graphics & Text | Print | Product List | Glossary Off
Versions: 1 2 3 4 5 6 7 8 9 10 11 12 13 14 15 16 17 18 19 20 21 22 23 24 25 26 27 28 29 30 31 32 33 34 35 36 37 38 39 40 41 42 43 44 45 46 47 48 49 50

849
FTUS43 KDDC 260340 AAA
TAFDDC
TAF AMD
KDDC 260340Z 2604/2624 05008KT P6SM SKC
     FM261200 18008KT 4SM BR VCFG SCT150
     FM261500 18020G30KT P6SM BKN150
     FM262100 18024G34KT P6SM VCTS BKN090CB=

USA.gov is the U.S. government's official web portal to all federal, state and local government web resources and services.